{"data":{"norad_id":65127,"epoch":"2026-09-21T20:59:09.512160Z","epoch_age_seconds":46634,"freshness":"FRESH","line1":"1 65127U 25170J   26264.87441565  .00000766  00000+0  12463-3 0  9993","line2":"2 65127  49.9905 117.3146 0022051  41.3565 318.9038 14.81617004 60332","mean_motion":14.81617004,"eccentricity":0.0022051,"inclination_deg":49.9905,"raan_deg":117.3146,"arg_perigee_deg":41.3565,"mean_anomaly_deg":318.9038,"bstar":0.00012463,"rev_number":6033,"period_min":97.191109180872,"perigee_km":608.78377385272,"apogee_km":639.6655893409,"semimajor_km":7002.3616815968,"source":"CELESTRAK","updated_at":"2026-09-22T09:00:30.147148Z"}}